Location: Couloutre
(47.4081°N, 3.2259°E)
Time: 07:40:28
(UTC+00:00)

SPOT 3 Rocket - Pass Details

Date: 27 February 2020
Orbit: 779 x 795 km, 98.8° (Epoch: 31 March)

Event Time Altitude Azimuth Distance (km) Brightness Sun altitude
Exits shadow 19:13:11 30° 126° (SE) 1,403 4.4 -18.5°
Maximum altitude 19:15:27 49° 68° (ENE) 1,014 3.7 -18.9°
Drops below altitude 10° 19:20:29 10° 355° (N) 2,373 6.2 -19.7°
Sets 19:22:53 0° 350° (N) 3,308 7.0 -20.1°
